Kozani, Greece

3:16 AM EEST on April 21, 2018 (GMT +0300)
Kozani

Weather History for LGKZ - November, 2013

Change the Weather History Date:

Monday, November 18, 2013

  Actual Average Record
Temperature  
Mean Temperature 44 °F -  
Max Temperature 53 °F - - ()
Min Temperature 35 °F - - ()
Degree Days  
Heating Degree Days 21    
Moisture  
Dew Point 37 °F    
Average Humidity 81    
Maximum Humidity 93    
Minimum Humidity 58    
Precipitation  
Precipitation 0.00 in - - ()
Sea Level Pressure  
Sea Level Pressure 30.18 in    
Wind  
Wind Speed 3 mph ()    
Max Wind Speed 7 mph    
Max Gust Speed -    
Visibility 6.2 miles    
Events      
T = Trace of Precipitation, MM = Missing Value Source: Averaged Metar Reports

Daily Weather History Graph

Daily Weather History Graph

Search for Another Location

Airport or City:

Astronomy

Nov. 18, 2013 Rise Set
Actual Time 7:22 AM EET 5:13 PM EET
Civil Twilight 6:52 AM EET 5:42 PM EET
Nautical Twilight 6:19 AM EET 6:16 PM EET
Astronomical Twilight 5:47 AM EET 6:48 PM EET
Moon 6:01 PM EET (11/18) 7:54 AM EET (11/18)
Length of Visible Light 10h 50m
Length of Day
9h 51m
Full, 99% of the Moon is Illuminated
Nov 18
Full
Nov 25
Last Quarter
Dec 3
New
Dec 9
First Quarter
Dec 17
Full

Hourly Weather History & Observations

Time (EET) Temp. Windchill Dew Point Humidity Pressure Visibility Wind Dir Wind Speed Gust Speed Precip Events Conditions
12:20 AM 37.4 °F 33.8 °F 35.6 °F 93% 30.21 in - North 4.6 mph - N/A   Unknown
12:50 AM 37.4 °F 34.9 °F 35.6 °F 93% 30.21 in - Variable 3.5 mph - N/A   Unknown
1:20 AM 39.2 °F 35.9 °F 35.6 °F 87% 30.21 in - NNW 4.6 mph - N/A   Unknown
1:50 AM 39.2 °F 35.0 °F 35.6 °F 87% 30.21 in - NNW 5.8 mph - N/A   Unknown
2:20 AM 39.2 °F 35.0 °F 35.6 °F 87% 30.21 in - North 5.8 mph - N/A   Unknown
2:50 AM 39.2 °F 35.9 °F 35.6 °F 87% 30.21 in - NNW 4.6 mph - N/A   Unknown
3:20 AM 37.4 °F 32.8 °F 33.8 °F 87% 30.21 in - North 5.8 mph - N/A   Unknown
3:50 AM 37.4 °F 34.9 °F 33.8 °F 87% 30.18 in - Variable 3.5 mph - N/A   Unknown
4:20 AM 37.4 °F 33.8 °F 33.8 °F 87% 30.18 in - NNW 4.6 mph - N/A   Unknown
4:50 AM 35.6 °F 30.7 °F 33.8 °F 93% 30.18 in - NNE 5.8 mph - N/A   Unknown
5:20 AM 35.6 °F - 33.8 °F 93% 30.18 in - Variable 2.3 mph - N/A   Unknown
5:50 AM 35.6 °F 32.8 °F 33.8 °F 93% 30.18 in - Variable 3.5 mph - N/A   Unknown
6:20 AM 35.6 °F - 33.8 °F 93% 30.18 in - Variable 2.3 mph - N/A   Unknown
6:50 AM 37.4 °F 33.8 °F 33.8 °F 87% 30.18 in 6.2 mi North 4.6 mph - N/A   Partly Cloudy
7:50 AM 37.4 °F 32.1 °F 33.8 °F 87% 30.18 in 6.2 mi NNW 6.9 mph - N/A   Partly Cloudy
8:50 AM 41.0 °F - 37.4 °F 87% 30.21 in 6.2 mi Calm Calm - N/A   Scattered Clouds
9:50 AM 48.2 °F - 39.2 °F 71% 30.21 in 6.2 mi Calm Calm - N/A   Scattered Clouds
10:50 AM 44.6 °F - 41.0 °F 87% 30.21 in 6.2 mi Calm Calm - N/A   Scattered Clouds
11:50 AM 48.2 °F - 41.0 °F 76% 30.18 in 6.2 mi Calm Calm - N/A   Partly Cloudy
12:50 PM 53.6 °F - 39.2 °F 58% 30.18 in 6.2 mi Calm Calm - N/A   Partly Cloudy
1:50 PM 53.6 °F - 39.2 °F 58% 30.15 in 6.2 mi Calm Calm - N/A   Partly Cloudy
2:50 PM 53.6 °F - 39.2 °F 58% 30.15 in 6.2 mi SSW 5.8 mph - N/A   Scattered Clouds
3:50 PM 53.6 °F - 39.2 °F 58% 30.15 in 6.2 mi ESE 4.6 mph - N/A   Scattered Clouds
4:50 PM 50.0 °F - 39.2 °F 66% 30.15 in 6.2 mi SE 4.6 mph - N/A   Scattered Clouds
5:50 PM 48.2 °F - 39.2 °F 71% 30.15 in 6.2 mi Calm Calm - N/A   Mostly Cloudy
6:50 PM 44.6 °F - 37.4 °F 76% 30.18 in 6.2 mi Calm Calm - N/A   Mostly Cloudy
7:50 PM 44.6 °F - 37.4 °F 76% 30.18 in 6.2 mi Calm Calm - N/A   Mostly Cloudy
8:20 PM 46.4 °F 45.2 °F 39.2 °F 76% 30.18 in - Variable 3.5 mph - N/A   Unknown
8:50 PM 46.4 °F 45.2 °F 39.2 °F 76% 30.18 in - Variable 3.5 mph - N/A   Unknown
9:20 PM 46.4 °F - 39.2 °F 76% 30.18 in - Variable 2.3 mph - N/A   Unknown
9:50 PM 44.6 °F - 39.2 °F 81% 30.18 in - Calm Calm - N/A   Unknown
10:20 PM 42.8 °F - 39.2 °F 87% 30.18 in - Calm Calm - N/A   Unknown
10:50 PM 44.6 °F - 39.2 °F 81% 30.18 in - Variable 1.2 mph - N/A   Unknown
11:20 PM 44.6 °F - 39.2 °F 81% 30.18 in - Variable 1.2 mph - N/A   Unknown
11:50 PM 42.8 °F 41.1 °F 39.2 °F 87% 30.18 in - Variable 3.5 mph - N/A   Unknown